| time (UTC) | temp F | wind direction | speed MPH | gust MPH | rain 1hr in | rain 24hr in | rain mn in | humidity % | barometer mb |
| 20260506090044 | 48 | 0 | 0.0 | 0.0 | 0.00 | 0.00 | 0.00 | 92 | 1012.9 |
| 20260506084546 | 48 | 0 | 0.0 | 0.0 | 0.00 | 0.00 | 0.00 | 92 | 1012.9 |
| 20260506083042 | 48 | 0 | 0.0 | 0.0 | 0.00 | 0.00 | 0.00 | 91 | 1012.7 |
| 20260506081543 | 48 | 0 | 0.0 | 0.0 | 0.00 | 0.00 | 0.00 | 91 | 1012.6 |
| 20260506073045 | 49 | 0 | 0.0 | 0.0 | 0.00 | 0.00 | 0.00 | 91 | 1012.3 |
| 20260506071552 | 50 | 0 | 0.0 | 0.0 | 0.00 | 0.00 | 0.00 | 91 | 1012.2 |
| 20260506061546 | 51 | 0 | 0.0 | 0.0 | 0.00 | 0.00 | 0.00 | 90 | 1011.9 |
| 20260506044547 | 55 | 0 | 0.0 | 0.0 | 0.00 | 0.00 | 0.00 | 85 | 1011.4 |
| 20260506043046 | 57 | 0 | 0.0 | 0.0 | 0.00 | 0.00 | 0.00 | 83 | 1011.3 |
| 20260506041550 | 59 | 0 | 0.0 | 0.0 | 0.00 | 0.00 | 0.00 | 78 | 1011.2 |
| 20260506040055 | 60 | 0 | 0.0 | 0.0 | 0.00 | 0.00 | 0.00 | 77 | 1011.1 |
| 20260506034549 | 61 | 0 | 0.0 | 0.0 | 0.00 | 0.00 | 0.00 | 76 | 1010.9 |
| 20260506033042 | 61 | 0 | 0.0 | 0.0 | 0.00 | 0.00 | 0.00 | 75 | 1010.7 |
| 20260506031546 | 63 | 0 | 0.0 | 0.0 | 0.00 | 0.00 | 0.00 | 73 | 1010.4 |
| 20260506030100 | 64 | 0 | 0.0 | 0.0 | 0.00 | 0.00 | 0.00 | 71 | 1010.3 |
| 20260506024555 | 65 | 0 | 0.0 | 0.0 | 0.00 | 0.00 | 0.00 | 70 | 1010.3 |
| 20260506023052 | 66 | 0 | 0.0 | 0.0 | 0.00 | 0.00 | 0.00 | 69 | 1010.2 |
| 20260506021558 | 67 | 0 | 0.0 | 5.0 | 0.00 | 0.00 | 0.00 | 68 | 1010.3 |
| 20260506020048 | 68 | 0 | 1.0 | 5.0 | 0.00 | 0.00 | 0.00 | 67 | 1010.2 |
| 20260506014556 | 69 | 36 | 0.0 | 8.0 | 0.00 | 0.00 | 0.00 | 65 | 1010.1 |
| 20260506013054 | 70 | 0 | 0.0 | 3.0 | 0.00 | 0.00 | 0.00 | 63 | 1010.2 |
| 20260506011544 | 72 | 96 | 0.0 | 4.0 | 0.00 | 0.00 | 0.00 | 61 | 1010.2 |
| 20260506010053 | 73 | 0 | 0.0 | 3.0 | 0.00 | 0.00 | 0.00 | 60 | 1010.2 |
| 20260506004550 | 73 | 55 | 0.0 | 5.0 | 0.00 | 0.00 | 0.00 | 59 | 1010.2 |
| 20260506003045 | 72 | 69 | 1.0 | 6.0 | 0.00 | 0.00 | 0.00 | 60 | 1010.4 |
| 20260506001546 | 72 | 98 | 2.0 | 7.0 | 0.00 | 0.00 | 0.00 | 61 | 1010.7 |
| 20260506000047 | 72 | 16 | 1.0 | 6.0 | 0.00 | 0.00 | 0.00 | 60 | 1010.8 |
| 20260505234547 | 73 | 82 | 0.0 | 6.0 | 0.00 | 0.00 | 0.00 | 60 | 1010.9 |
| 20260505233057 | 74 | 75 | 0.0 | 9.0 | 0.00 | 0.00 | 0.00 | 59 | 1010.9 |
| 20260505231549 | 73 | 0 | 2.0 | 5.0 | 0.00 | 0.00 | 0.00 | 59 | 1011.1 |
| 20260505230051 | 73 | 0 | 1.0 | 6.0 | 0.00 | 0.00 | 0.00 | 59 | 1011.1 |
| 20260505224549 | 74 | 0 | 1.0 | 6.0 | 0.00 | 0.00 | 0.00 | 59 | 1011.3 |
| 20260505223050 | 72 | 32 | 2.0 | 9.0 | 0.00 | 0.00 | 0.00 | 60 | 1011.4 |
| 20260505221555 | 73 | 83 | 0.0 | 8.0 | 0.00 | 0.00 | 0.00 | 61 | 1011.5 |
| 20260505220057 | 73 | 49 | 2.0 | 5.0 | 0.00 | 0.00 | 0.00 | 60 | 1011.6 |
| 20260505214544 | 72 | 0 | 1.0 | 9.0 | 0.00 | 0.00 | 0.00 | 61 | 1011.7 |
| 20260505213051 | 73 | 43 | 1.0 | 7.0 | 0.00 | 0.00 | 0.00 | 60 | 1011.8 |
| 20260505211546 | 72 | 331 | 2.0 | 8.0 | 0.00 | 0.00 | 0.00 | 61 | 1011.8 |
| 20260505210045 | 73 | 306 | 1.0 | 7.0 | 0.00 | 0.00 | 0.00 | 60 | 1012.0 |
| 20260505204545 | 71 | 105 | 1.0 | 6.0 | 0.00 | 0.00 | 0.00 | 63 | 1012.0 |
| 20260505203050 | 70 | 118 | 1.0 | 8.0 | 0.00 | 0.00 | 0.00 | 63 | 1012.1 |
| 20260505201543 | 71 | 78 | 2.0 | 9.0 | 0.00 | 0.00 | 0.00 | 62 | 1012.1 |
| 20260505200048 | 70 | 125 | 3.0 | 10.0 | 0.00 | 0.00 | 0.00 | 62 | 1012.1 |
| 20260505194552 | 70 | 101 | 2.0 | 6.0 | 0.00 | 0.00 | 0.00 | 63 | 1012.1 |
| 20260505193102 | 69 | 0 | 2.0 | 7.0 | 0.00 | 0.00 | 0.00 | 63 | 1012.0 |
| 20260505191544 | 69 | 42 | 1.0 | 5.0 | 0.00 | 0.00 | 0.00 | 63 | 1012.0 |
| 20260505190053 | 69 | 194 | 2.0 | 7.0 | 0.00 | 0.00 | 0.00 | 64 | 1012.1 |
| 20260505184552 | 68 | 85 | 3.0 | 9.0 | 0.00 | 0.00 | 0.00 | 64 | 1012.1 |
| 20260505183047 | 67 | 89 | 2.0 | 5.0 | 0.00 | 0.00 | 0.00 | 65 | 1012.0 |
| 20260505181544 | 67 | 36 | 5.0 | 9.0 | 0.00 | 0.00 | 0.00 | 65 | 1012.1 |
| 20260505180053 | 67 | 63 | 0.0 | 6.0 | 0.00 | 0.00 | 0.00 | 67 | 1012.0 |
| 20260505174546 | 66 | 311 | 0.0 | 6.0 | 0.00 | 0.00 | 0.00 | 70 | 1012.1 |
| 20260505173046 | 65 | 0 | 2.0 | 7.0 | 0.00 | 0.00 | 0.00 | 71 | 1012.0 |
| 20260505171549 | 64 | 111 | 1.0 | 6.0 | 0.00 | 0.00 | 0.00 | 73 | 1012.1 |
| 20260505170046 | 63 | 178 | 3.0 | 9.0 | 0.00 | 0.00 | 0.00 | 75 | 1012.1 |
| 20260505164546 | 62 | 105 | 1.0 | 6.0 | 0.00 | 0.00 | 0.00 | 78 | 1012.0 |
| 20260505163048 | 60 | 43 | 0.0 | 6.0 | 0.00 | 0.00 | 0.00 | 80 | 1011.9 |
| 20260505161547 | 59 | 0 | 0.0 | 7.0 | 0.00 | 0.00 | 0.00 | 83 | 1011.9 |
| 20260505153048 | 56 | 111 | 0.0 | 3.0 | 0.00 | 0.00 | 0.00 | 87 | 1011.7 |
| 20260505151542 | 56 | 0 | 0.0 | 3.0 | 0.00 | 0.00 | 0.00 | 88 | 1011.6 |
| 20260505124543 | 0 | 0.0 | 0.0 | 0.00 | 0.00 | 0.00 | 1009.9 | ||
| 20260505123057 | 0 | 0.0 | 0.0 | 0.00 | 0.00 | 0.00 | 1009.6 | ||
| 20260505121546 | 0 | 0.0 | 0.0 | 0.00 | 0.00 | 0.00 | 1009.6 | ||
| 20260505120054 | 0 | 0.0 | 0.0 | 0.00 | 0.00 | 0.00 | 1009.4 | ||
| 20260505114553 | 0 | 0.0 | 0.0 | 0.00 | 0.00 | 0.00 | 1009.4 | ||
| 20260505113050 | 0 | 0.0 | 0.0 | 0.00 | 0.00 | 0.00 | 1009.3 | ||
| 20260505111548 | 0 | 0.0 | 0.0 | 0.00 | 0.00 | 0.00 | 1009.1 | ||
| 20260505101544 | 0 | 0.0 | 0.0 | 0.00 | 0.00 | 0.00 | 1008.4 | ||
| 20260505100048 | 0 | 0.0 | 0.0 | 0.00 | 0.00 | 0.00 | 1008.3 | ||
| 20260505094548 | 0 | 0.0 | 0.0 | 0.00 | 0.00 | 0.00 | 1008.1 | ||
| 20260505093049 | 0 | 0.0 | 0.0 | 0.00 | 0.00 | 0.00 | 1008.0 | ||
| 20260505091603 | 50 | 0.0 | 0.0 | 0.00 | 0.00 | 0.00 | 94 | 1008.1 |